CST,Max TemperatureF,Mean TemperatureF,Min TemperatureF,Max Dew PointF,MeanDew PointF,Min DewpointF,Max Humidity, Mean Humidity, Min Humidity, Max Sea Level PressureIn, Mean Sea Level PressureIn, Min Sea Level PressureIn, Max VisibilityMiles, Mean VisibilityMiles, Min VisibilityMiles, Max Wind SpeedMPH, Mean Wind SpeedMPH, Max Gust SpeedMPH,PrecipitationIn, CloudCover, Events, WindDirDegrees
2012-11-1,46,39,32,37,30,23,87,71,43,30.06,30.01,29.97,10,9,3,14,6,23,0.00,2,,20
2012-11-2,41,36,32,30,27,25,80,71,57,30.14,30.06,30.01,10,10,10,12,8,16,0.00,4,,86
2012-11-3,46,36,26,34,30,23,93,74,57,30.21,30.17,30.13,10,10,10,8,2,,0.00,6,,258
2012-11-4,44,40,37,37,36,34,93,86,70,30.18,30.13,30.07,10,7,3,10,5,,0.14,8,Rain,51
2012-11-5,39,36,33,34,33,32,93,89,81,30.18,30.10,29.93,10,7,2,14,8,18,0.01,8,Rain,316
2012-11-6,48,42,35,36,33,32,93,74,57,30.05,29.94,29.84,10,10,7,26,15,38,0.00,5,,303
2012-11-7,50,39,28,34,31,27,93,77,50,30.14,30.06,29.96,10,10,10,12,6,,0.00,0,,189
2012-11-8,55,44,33,36,33,30,93,71,41,29.98,29.91,29.86,10,9,5,15,10,25,0.00,1,,103
2012-11-9,53,44,35,43,37,34,93,79,58,29.96,29.86,29.72,10,7,2,18,14,26,0.00,6,,74
2012-11-10,59,47,35,52,44,32,94,84,71,29.71,29.56,29.46,10,7,2,22,12,28,0.45,7,Rain-Thunderstorm,193
2012-11-11,33,26,19,32,17,10,93,71,55,30.03,29.89,29.67,10,10,3,28,19,34,0.00,4,Snow,297
2012-11-12,32,24,17,16,14,10,80,67,44,30.30,30.16,30.02,10,10,10,25,15,32,0.00,1,,284
2012-11-13,44,30,15,28,21,12,86,72,39,30.31,30.26,30.21,10,10,10,15,2,,0.00,3,,179
2012-11-14,51,38,24,32,28,21,93,74,43,30.26,30.20,30.11,10,10,7,10,2,,0.00,1,,178
2012-11-15,48,36,21,32,27,18,93,72,43,30.47,30.30,30.11,10,10,10,13,6,17,0.00,0,,340
2012-11-16,46,32,17,30,22,12,93,71,43,30.48,30.36,30.23,10,10,10,15,4,20,0.00,0,,166
2012-11-17,57,45,33,36,33,30,93,68,41,30.24,30.14,30.07,10,9,7,25,12,34,0.00,0,,173
2012-11-18,57,44,32,34,32,28,87,63,41,30.08,30.03,29.98,10,10,10,17,10,21,0.00,0,,171
2012-11-19,55,44,32,37,34,30,93,72,47,30.14,30.03,29.97,10,10,7,9,6,,0.00,0,,281
2012-11-20,57,39,21,34,28,19,93,70,31,30.20,30.11,30.00,10,9,5,13,5,,0.00,0,,189
2012-11-21,69,50,32,37,34,28,93,63,24,30.00,29.86,29.69,10,10,7,26,8,33,0.00,0,,187
2012-11-22,50,40,28,37,31,19,93,71,60,30.21,29.88,29.65,10,10,7,30,12,44,0.00,4,,304
2012-11-23,28,20,12,18,12,7,85,65,51,30.45,30.37,30.21,10,10,10,26,18,37,0.00,3,,326
2012-11-24,37,24,12,21,15,9,86,64,38,30.36,30.02,29.81,10,10,10,25,6,29,0.00,3,,180
2012-11-25,33,28,24,27,23,19,86,73,64,30.18,30.00,29.85,10,10,10,12,6,20,0.00,4,,330
2012-11-26,28,18,8,21,10,5,85,66,47,30.45,30.35,30.19,10,10,10,13,7,18,0.00,2,,338
2012-11-27,35,22,10,23,17,5,86,77,60,30.35,30.21,30.09,10,10,7,17,6,22,0.00,0,,225
2012-11-28,42,26,10,27,18,7,93,76,46,30.34,30.20,30.01,10,9,5,18,3,22,0.00,0,,178
2012-11-29,44,32,19,27,23,14,93,73,49,30.02,29.98,29.92,10,9,7,13,4,17,0.00,1,,62
2012-11-30,42,32,23,32,27,21,93,81,61,30.11,30.03,29.95,10,6,4,14,8,,0.00,0,,86